sat.trackr.live / text

‹ back to catalog

FLOCK 4G-21

NORAD 62651 · 2025-009AU

PAYLOAD ACTIVE UNKNOWN

§ Identity

Operator
Country
US
Launch date
2025-01-14
Launch site
AFWTR
Launch vehicle
Mass (kg)
RCS (m²)

Purposes: earth_obs

External: N2YO · Heavens-Above · Gunter

§ Orbital elements

Epoch: 2026-05-25T04:57:32.550336Z

Period
94.11 min
Inclination
97.3992°
Eccentricity
0.0002548
Mean motion
15.30127799 rev/d
Perigee alt
473.7 km
Apogee alt
477.2 km
Semi-major
6,853.6 km
B*
4.0210e-4
RAAN
227.7645°
Arg perigee
68.3081°
Mean anomaly
291.8431°
Rev number
7,544

§ Raw data

FLOCK 4G-211 62651U 25009AU  26145.20662674  .00011654  00000+0  40210-3 0  99932 62651  97.3992 227.7645 0002548  68.3081 291.8431 15.30127799 75441

JSON: /api/v1/satellites/62651 · /tle

For live sub-satellite position, see the globe view (requires WebGL).

§ Visibility from observer

Set your observer location to see the next 7 days of passes ≥ 10°. The values pass through the URL so the page stays shareable.

No JS? Fill the form by hand. The geolocation button needs JavaScript.